Lid_Strength_Index
3 3 3 3 3 3 3 3 3 3 3 3 3 3 3 2 2 2 2 2 2 2 2 2 2 2 2 5 4 1 -0 1 3 3 4 4 5 5 7 6 5 6 6 6 5 6 6
3 4 4 4 4 4 4 4 4 4 4 4 4 4 4 4 4 4 3 3 3 3 2 2 2 3 4 9 2 -1 -0 1 1 2 3 4 5 5 7 7 6 6 6 6 6 6 6
3 3 4 4 4 4 4 5 5 5 5 5 5 4 4 4 4 4 4 4 4 3 3 3 2 3 6 7 3 3 3 2 1 2 3 3 3 6 6 7 5 6 9 7 7 6 7
4 4 4 4 4 4 4 5 5 5 5 5 5 5 4 4 4 4 4 4 4 4 3 3 2 3 8 4 3 4 4 3 2 2 2 2 3 6 7 5 6 8 8 10 7 6 6
4 4 4 3 4 4 5 4 5 5 5 5 5 5 4 4 4 4 4 4 4 3 3 3 4 4 7 2 5 3 2 4 2 3 2 2 5 7 6 8 9 9 11 10 8 6 6
4 4 4 4 3 4 4 5 5 5 5 5 5 5 5 5 4 4 4 4 4 3 3 2 3 7 6 7 5 3 1 2 3 3 4 4 7 8 8 9 13 11 10 9 9 7 7
3 3 2 3 3 3 3 4 4 4 5 5 5 5 5 5 5 4 5 5 6 5 5 7 6 7 6 4 3 4 3 4 4 6 8 5 9 11 9 8 8 8 9 10 8 7 8
3 2 2 2 2 3 3 3 3 3 4 4 4 4 4 4 4 4 4 8 5 5 9 6 5 5 5 5 7 6 4 6 7 9 7 8 10 7 7 7 8 8 10 10 9 8 8
2 3 2 2 2 2 2 2 2 3 3 3 4 4 4 4 4 5 6 5 2 3 10 10 8 9 8 6 8 8 6 7 8 9 9 10 9 6 7 9 10 9 10 10 10 8 8
2 3 2 2 2 2 2 2 2 2 3 3 3 3 3 4 5 4 6 3 2 1 11 12 9 8 7 7 9 6 6 7 9 10 9 10 8 8 8 9 8 11 7 8 9 10 13
3 3 3 3 3 3 3 3 2 2 3 3 3 4 4 4 6 5 3 2 1 3 19 10 9 5 5 8 8 7 4 7 10 10 9 11 9 9 9 9 7 9 7 8 8 10 10
2 3 3 3 3 3 3 3 3 3 3 3 3 3 4 5 4 4 3 2 3 12 19 13 9 9 9 7 7 6 5 5 6 9 10 10 7 8 9 8 7 7 8 8 8 10 15
2 2 2 2 2 2 2 2 2 2 2 2 2 3 4 4 6 2 1 3 12 16 11 13 11 9 8 8 8 7 8 9 10 13 13 11 11 8 7 9 8 8 10 15 15 16 16
2 2 1 1 1 1 1 1 1 1 1 1 1 2 2 2 1 0 3 9 16 14 13 9 9 8 10 8 8 8 8 10 8 8 10 12 13 10 8 9 10 10 10 15 18 17 14
1 1 0 0 -0 -0 -0 -0 -0 -0 -0 -0 -0 1 1 0 -1 -0 5 14 13 12 10 10 9 10 9 9 9 9 9 10 8 9 14 13 12 7 7 6 8 10 12 9 13 12 15
1 0 -0 -0 -0 -0 -1 -1 -1 -1 -1 -1 1 2 2 -2 -2 2 8 11 10 8 7 8 11 9 12 10 10 9 10 8 9 7 7 11 15 8 7 7 7 9 8 14 15 21 20
1 1 0 1 1 1 1 1 -0 -1 -1 -1 2 6 1 -2 -0 6 12 10 8 6 6 8 9 9 10 10 9 10 10 8 7 7 7 8 12 11 8 11 11 10 11 12 13 15 20
-0 0 0 0 1 1 1 1 0 -0 -0 -0 3 9 1 -0 9 8 11 8 6 7 5 6 7 8 9 8 9 10 10 8 6 6 9 8 10 15 11 8 7 8 11 11 16 16 14
-0 -0 -0 -0 -0 -0 0 1 1 0 -0 1 6 8 1 2 12 11 7 7 6 7 7 7 8 7 7 8 10 9 8 6 6 7 9 8 11 14 13 10 9 10 10 10 12 13 17
-0 -1 -1 -0 -0 -1 -1 -0 -0 0 -0 1 7 10 7 5 6 8 9 9 9 6 6 6 7 6 8 9 8 9 9 8 6 7 7 7 10 12 15 12 10 12 11 10 11 16 16
-1 -1 -1 -1 -1 -1 -0 -1 -1 -1 -1 1 6 8 6 11 10 8 7 8 9 9 6 6 8 8 9 10 9 10 8 7 7 6 7 8 12 11 11 10 11 11 12 11 11 12 16
-1 -1 -1 -1 -1 -1 -1 -1 -2 -1 -1 2 7 8 6 7 7 8 9 9 9 8 8 8 9 8 7 9 9 10 9 8 9 7 7 7 11 11 12 10 10 12 11 11 11 11 11
-1 -1 -1 -1 -1 -1 -1 -1 -2 -1 -1 5 5 4 6 8 8 9 10 9 9 7 6 6 7 9 10 8 7 6 6 6 7 8 9 9 11 12 14 10 11 14 11 10 10 9 10
-0 -0 -0 -0 -0 -1 -1 -1 -1 -1 -1 2 2 3 7 10 9 9 8 7 7 7 8 6 6 8 7 4 4 5 6 6 6 7 6 9 10 11 14 12 19 11 7 7 9 8 7
-0 -0 -0 -0 -0 -1 -1 -1 -1 -1 -1 1 2 3 6 10 8 8 8 7 6 6 6 6 6 5 3 5 9 10 10 10 9 7 7 7 9 13 15 15 12 10 9 9 10 10 7
-0 -0 -0 -0 -1 -1 -1 -1 -1 -1 -1 1 2 1 5 8 9 7 8 7 8 8 8 7 4 3 4 7 10 14 14 12 12 10 7 7 8 11 13 16 18 11 8 6 7 12 6
-0 -0 -0 -1 -1 -1 -1 -1 -1 -1 -1 2 2 1 4 7 6 5 7 7 6 6 8 7 6 6 4 9 12 13 13 9 13 13 12 12 11 13 14 15 12 8 6 6 15 12 6
-0 -0 -0 -0 -1 -1 -1 -1 -1 -1 0 2 3 0 2 5 4 3 4 5 5 7 10 6 8 7 8 11 11 10 11 10 11 10 11 11 13 15 14 15 17 6 7 10 8 6 6
-0 -0 -0 -1 -1 -1 -1 -1 -1 -1 -0 -0 2 -0 -1 4 4 2 1 1 2 3 5 6 8 8 6 9 8 8 10 9 10 14 8 12 9 11 12 13 8 6 7 5 6 6 6